Riverside March, CA

2:18 AM PDT on July 22, 2017 (GMT -0700)
March Air Reserve Base

Weather History for KRIV - December, 2013

Change the Weather History Date:

Friday, December 20, 2013

  Actual Average Record
Temperature  
Mean Temperature 48 °F -  
Max Temperature 59 °F 62 °F 77 °F (1999)
Min Temperature 37 °F 37 °F 28 °F (2006)
Degree Days  
Heating Degree Days 17    
Moisture  
Dew Point 38 °F    
Average Humidity 88    
Maximum Humidity 100    
Minimum Humidity 36    
Precipitation  
Precipitation 0.00 in - - ()
Sea Level Pressure  
Sea Level Pressure 29.82 in    
Wind  
Wind Speed 3 mph (SE)    
Max Wind Speed 9 mph    
Max Gust Speed -    
Visibility 4 miles    
Events Fog    
Averages and records for this station are not official NWS values.
T = Trace of Precipitation, MM = Missing Value Source: NWS Daily Summary

Daily Weather History Graph

Daily Weather History Graph

Search for Another Location

Airport or City:

Trip Planner

Search our weather history database for the weather conditions in past years. The results will help you decide how hot, cold, wet, or windy it might be!

Date:

Astronomy

Dec. 20, 2013 Rise Set
Actual Time 6:49 AM PST 4:43 PM PST
Civil Twilight 6:22 AM PST 5:11 PM PST
Nautical Twilight 5:50 AM PST 5:42 PM PST
Astronomical Twilight 5:20 AM PST 6:13 PM PST
Moon 8:00 PM PST (12/20) 8:53 AM PST (12/20)
Length of Visible Light 10h 49m
Length of Day
9h 53m
Waning Gibbous, 90% of the Moon is Illuminated
Dec 20
Waning Gibbous
Dec 25
Last Quarter
Jan 1
New
Jan 7
First Quarter
Jan 15
Full

Hourly Weather History & Observations

Time (PST) Temp. Windchill Dew Point Humidity Pressure Visibility Wind Dir Wind Speed Gust Speed Precip Events Conditions
12:58 AM 39.4 °F - 38.7 °F 97% 29.76 in 10.0 mi South 2.3 mph - N/A   Clear
1:08 AM 39.2 °F - 37.4 °F 93% 29.75 in 2.5 mi South 2.3 mph - N/A   Clear
1:13 AM 39.2 °F - 37.4 °F 93% 29.75 in 2.0 mi Calm Calm - N/A   Clear
1:23 AM 39.2 °F - 37.4 °F 93% 29.76 in 1.5 mi ESE 1.2 mph - N/A   Clear
1:28 AM 37.4 °F - 37.4 °F 100% 29.76 in 0.5 mi SE 2.3 mph - N/A Fog Fog
1:33 AM 37.4 °F - 37.4 °F 100% 29.76 in 0.2 mi SE 2.3 mph - N/A Fog Fog
1:44 AM 37.4 °F - 35.6 °F 93% 29.76 in 0.2 mi Calm Calm - N/A Fog Fog
1:58 AM 37.6 °F - 36.9 °F 97% 29.77 in 0.2 mi SE 2.3 mph - N/A Fog Fog
2:55 AM 39.2 °F - 37.4 °F 93% 29.76 in 0.2 mi East 2.3 mph - N/A Fog Fog
2:58 AM 38.8 °F 36.5 °F 37.9 °F 97% 29.78 in 0.2 mi East 3.5 mph - N/A Fog Fog
3:03 AM 39.2 °F 37.0 °F 39.2 °F 100% 29.77 in 0.5 mi East 3.5 mph - N/A Fog Fog
3:13 AM 39.2 °F 37.0 °F 39.2 °F 100% 29.77 in 0.2 mi East 3.5 mph - N/A Fog Fog
3:23 AM 39.2 °F - 39.2 °F 100% 29.76 in 0.5 mi ENE 1.2 mph - N/A Fog Fog
3:28 AM 39.2 °F - 39.2 °F 100% 29.77 in 0.2 mi ESE 2.3 mph - N/A Fog Fog
3:33 AM 39.2 °F 35.9 °F 39.2 °F 100% 29.76 in 0.2 mi SE 4.6 mph - N/A Fog Fog
3:38 AM 39.2 °F 35.9 °F 39.2 °F 100% 29.76 in 0.2 mi SSE 4.6 mph - N/A Fog Fog
3:58 AM 39.7 °F - 38.7 °F 96% 29.77 in 0.2 mi ESE 1.2 mph - N/A Fog Fog
4:58 AM 37.2 °F - 36.1 °F 96% 29.77 in 0.2 mi SSE 2.3 mph - N/A Fog Fog
5:18 AM 37.4 °F 34.9 °F 35.6 °F 93% 29.77 in 0.2 mi East 3.5 mph - N/A Fog Fog
5:27 AM 37.4 °F 34.9 °F 37.4 °F 100% 29.77 in 0.2 mi SSE 3.5 mph - N/A Fog Fog
5:58 AM 37.0 °F 32.4 °F 36.1 °F 97% 29.79 in 0.2 mi SE 5.8 mph - N/A Fog Fog
6:58 AM 37.0 °F 34.5 °F 36.1 °F 97% 29.82 in 0.2 mi SSE 3.5 mph - N/A Fog Fog
7:37 AM 37.4 °F - 35.6 °F 93% 29.82 in 0.2 mi SSE 2.3 mph - N/A Fog Fog
7:58 AM 37.4 °F - 35.6 °F 93% 29.84 in 0.2 mi Calm Calm - N/A Fog Fog
8:29 AM 37.4 °F 34.9 °F 37.4 °F 100% 29.84 in 0.4 mi East 3.5 mph - N/A Fog Fog
8:53 AM 39.2 °F 35.9 °F 37.4 °F 93% 29.85 in 0.8 mi ESE 4.6 mph - N/A   Mist
8:58 AM 39.9 °F 37.8 °F 37.8 °F 92% 29.87 in 0.8 mi ESE 3.5 mph - N/A   Partly Cloudy
9:07 AM 41.0 °F 38.0 °F 39.2 °F 93% 29.85 in 4.0 mi SSE 4.6 mph - N/A   Partly Cloudy
9:58 AM 44.1 °F 40.1 °F 42.3 °F 93% 29.88 in 10.0 mi SSE 6.9 mph - N/A   Partly Cloudy
10:58 AM 48.0 °F - 46.9 °F 96% 29.86 in 10.0 mi SE 4.6 mph - N/A   Clear
11:58 AM 51.3 °F - 36.1 °F 56% 29.84 in 10.0 mi SE 5.8 mph - N/A   Partly Cloudy
12:58 PM 58.3 °F - 35.4 °F 42% 29.82 in 10.0 mi ESE 4.6 mph - N/A   Partly Cloudy
1:58 PM 59.0 °F - 35.6 °F 42% 29.83 in 10.0 mi West 8.1 mph - N/A   Clear
2:58 PM 59.2 °F - 32.4 °F 36% 29.82 in 10.0 mi NW 9.2 mph - N/A   Clear
3:58 PM 57.6 °F - 38.8 °F 50% 29.83 in 10.0 mi West 8.1 mph - N/A   Clear
4:58 PM 53.2 °F - 39.6 °F 60% 29.85 in 10.0 mi West 8.1 mph - N/A   Clear
5:58 PM 51.6 °F - 40.3 °F 65% 29.86 in 10.0 mi WSW 5.8 mph - N/A   Clear
6:58 PM 48.6 °F - 42.1 °F 78% 29.90 in 10.0 mi West 1.2 mph - N/A   Clear
7:58 PM 45.7 °F - 42.3 °F 88% 29.92 in 10.0 mi WNW 1.2 mph - N/A   Clear
8:58 PM 43.2 °F - 40.6 °F 91% 29.93 in 10.0 mi SE 2.3 mph - N/A   Clear
9:53 PM 41.0 °F 39.0 °F 39.2 °F 93% 29.93 in 10.0 mi SE 3.5 mph - N/A   Mostly Cloudy
9:58 PM 41.4 °F 38.4 °F 40.3 °F 96% 29.94 in 10.0 mi SSE 4.6 mph - N/A   Scattered Clouds
10:58 PM 42.1 °F - 41.4 °F 97% 29.96 in 10.0 mi Calm Calm - N/A   Clear
11:30 PM 39.2 °F - 39.2 °F 100% 29.94 in 4.0 mi Calm Calm - N/A   Partly Cloudy
11:58 PM 40.3 °F - 39.7 °F 98% 29.94 in 8.0 mi Calm Calm - N/A   Mostly Cloudy